Regional Weather Roundup
Issued by NWS

Home | Current Version | Previous Version | Text Only | Print | Product List | Glossary Off
Versions: 1 2 3 4 5 6 7 8 9 10 11 12 13 14 15 16 17 18 19 20 21 22 23 24 25 26 27 28 29 30 31 32 33 34 35 36 37 38 39 40 41 42 43 44 45 46 47 48 49 50

799
ASUS45 KBOU 281107
RWRCO

WEATHER ROUNDUP FOR COLORADO
NATIONAL WEATHER SERVICE DENVER/BOULDER CO
500 AM MDT FRI JUL 28 2017

NOTE: "FAIR" INDICATES FEW OR NO CLOUDS BELOW 12000 FEET WITH NO
SIGNIFICANT WEATHER AND/OR OBSTRUCTIONS TO VISIBILITY.

COZ001>005-013-030-031-281200-
...NORTHWEST COLORADO...

CITY           SKY/WX    TMP DP  RH WIND       PRES   REMARKS
CRAIG          FAIR      51  48  89 CALM      30.25R
HAYDEN         FAIR      55  45  67 SE7       30.27R
MEEKER         FAIR      54  50  86 CALM      30.26R
RABBIT EARS PA FAIR      52  43  71 W6        30.54S
STEAMBOAT SPGS FAIR      49  47  92 CALM      30.29R
WALDEN         FAIR      45  39  81 SE3       30.38R
$$

COZ006>008-011-281200-
...WEST CENTRAL VALLEYS...

CITY           SKY/WX    TMP DP  RH WIND       PRES   REMARKS
GRAND JUNCTION FAIR      69  52  54 E6        30.08R
MONTROSE       MOCLDY    69  51  52 SE8       30.18R
EAGLE          FAIR      56  48  74 E6        30.30R
RIFLE          FAIR      63  53  70 CALM      30.16S
DELTA          FAIR      69  52  54 CALM      30.14R
NUCLA          FAIR      66  50  55 SE8       30.25R
$$

COZ017>023-064>068-281200-
...SOUTHWEST COLORADO...

CITY           SKY/WX    TMP DP  RH WIND       PRES   REMARKS
DURANGO        CLOUDY    61  57  87 CALM      30.28S
CORTEZ         FAIR      65  57  75 CALM      30.22S
PAGOSA SPRINGS FAIR      60  56  85 CALM      30.37R
TELLURIDE      CLOUDY    60  49  67 CALM      30.46S
WOLF CREEK PAS FOG       45  45 100 SW5       30.69R VSB 1
$$

COZ009-010-012-014-032>034-037-058>063-281200-
...CENTRAL COLORADO...

CITY           SKY/WX    TMP DP  RH WIND       PRES   REMARKS
ASPEN          FAIR      54  47  77 CALM      30.32F
BUENA VISTA    FAIR      55  50  82 CALM      30.37R
COPPER MTN     FAIR      54  39  58 W3        30.66S
BERTHOUD PASS  FAIR      43  32  65 NW10      30.69R
COTTONWOOD PAS FAIR      59  43  55 SW3       30.49R
GUNNISON       FAIR      56  49  77 N5        30.36S
KREMMLING      FAIR      54  50  87 CALM      30.36R
LEADVILLE      FAIR      45  43  93 N3        30.49R
MONARCH PASS   FAIR      50  39  66 SW8       30.74S
SALIDA         FAIR      59  52  78 W7        30.41R
SUNLIGHT       FAIR      52  41  66 CALM      30.58S
WILKERSON PASS FAIR      54  39  58 NW7       30.62S
$$

COZ069>075-281200-
...SAN LUIS VALLEY/SANGRE DE CRISTO MOUNTAINS...

CITY           SKY/WX    TMP DP  RH WIND       PRES   REMARKS
ALAMOSA        FAIR      53  52  96 SE3       30.33S
DEL NORTE      FAIR      58  51  78 W3        30.37S
LA VETA PASS   NOT AVBL
SAGUACHE         N/A    N/A N/A N/A MISG        N/A
$$

COZ035-036-038>040-281200-
...NORTHERN COLORADO FRONT RANGE...

CITY           SKY/WX    TMP DP  RH WIND       PRES   REMARKS
DENVER INTL AP FAIR      66  53  63 SW8       30.12R
DMNS CITY PARK   N/A     65  55  70 W2        30.12S
AURORA         PTCLDY    65  54  67 SW8       30.14S
FRONT RANGE AP FAIR      68  54  60 SW8       30.14R
ERIE MUNI ARPT FAIR      60  57  89 CALM      30.11S
BOULDER MUN AP FAIR      68  57  68 CALM      30.13R
CENTENNIAL     FAIR      67  52  58 CALM      30.16R
BROOMFIELD     FAIR      68  55  64 NW9       30.15R
FORT COLLINS   FAIR      64  61  90 NE13      30.11F
LONGMONT       FAIR      66  55  67 N3        30.13R
$$

COZ041-046-047-076>085-087-088-281200-
...PIKES PEAK/PALMER DIVIDE AND SOUTHERN FOOTHILLS...

CITY           SKY/WX    TMP DP  RH WIND       PRES   REMARKS
COLO. SPRINGS  CLOUDY    66  64  93 CALM      30.21S FOG
A. F. ACADEMY  CLOUDY    64  64 100 CALM      30.22S
SCHRIEVER AFB  FOG       63  62  98 CALM      30.22S VSB 5/8
CHEYENNE MTN   FOG       61  60  96 CALM      30.21R VSB 1/4
ELLICOTT       CLOUDY   N/A N/A N/A CALM      30.19F
FALCON         FOG       62  62  99 SW3       30.26S VSB<1/4
FORT CARSON    CLOUDY    66  65  98 E3        30.18S
LIMON          FOG       64  64 100 SE13      30.17R VSB 3/4
MONUMENT HILL  FAIR      57  55  94 SW8       30.26S
CANON CITY     PTCLDY    70  59  68 W7        30.16S
WALSENBURG     FAIR      63  59  88 NW7       30.21R
TRINIDAD       FAIR      60  53  77 W7        30.19R
$$

COZ042>045-048>051-090-091-281200-
...NORTHEAST COLORADO...

CITY           SKY/WX    TMP DP  RH WIND       PRES   REMARKS
GREELEY ARPT   FAIR      63  62  97 N13       30.11R
AKRON          FAIR      64  61  90 SE12      30.12R
BURLINGTON     MOCLDY    63  63 100 S9        30.11F FOG
WRAY           NOT AVBL
YUMA           PTSUNNY   61  54  77 NE9       30.12R
STERLING       FAIR      64  63  94 E7        30.08S
HOLYOKE        MOCLDY    64  63  94 E7        30.11S
FORT MORGAN    FAIR      65  62  90 E8        30.10F
$$

COZ086-089-092>099-281200-
...SOUTHEAST COLORADO...

CITY           SKY/WX    TMP DP  RH WIND       PRES   REMARKS
PUEBLO         CLOUDY    68  66  93 CALM      30.11S
LA JUNTA       FAIR      67  66  97 E7        30.09S FOG
LAMAR          FAIR      68  66  93 E5        30.08R FOG
SPRINGFIELD      N/A     64  64 100 SE5       30.13R
$$




USA.gov is the U.S. government's official web portal to all federal, state and local government web resources and services.